TimeCDT,TemperatureF,Dew PointF,Humidity,Sea Level PressureIn,VisibilityMPH,Wind Direction,Wind SpeedMPH,Gust SpeedMPH,PrecipitationIn,Events,Conditions,WindDirDegrees,DateUTC
12:15 AM,77.4,72.9,86,29.99,7.0,ENE,4.6,-,N/A,,Clear,70,2013-09-19 05:15:00
12:35 AM,77.4,72.9,86,29.98,7.0,East,4.6,-,N/A,,Clear,90,2013-09-19 05:35:00
12:55 AM,77.4,72.7,85,29.98,7.0,East,3.5,-,N/A,,Clear,90,2013-09-19 05:55:00
1:15 AM,77.4,72.5,85,29.98,7.0,ENE,3.5,-,N/A,,Clear,70,2013-09-19 06:15:00
1:35 AM,76.6,72.5,87,29.98,7.0,ENE,3.5,-,N/A,,Clear,60,2013-09-19 06:35:00
1:55 AM,76.6,72.7,87,29.97,7.0,NE,3.5,-,N/A,,Clear,50,2013-09-19 06:55:00
2:15 AM,76.6,72.9,88,29.97,7.0,NE,3.5,-,N/A,,Clear,40,2013-09-19 07:15:00
2:35 AM,76.5,72.7,88,29.97,7.0,NE,3.5,-,N/A,,Clear,40,2013-09-19 07:35:00
2:55 AM,76.8,73.0,88,29.97,7.0,NE,3.5,-,N/A,,Scattered Clouds,40,2013-09-19 07:55:00
3:15 AM,77.0,73.0,88,29.96,7.0,NE,3.5,-,N/A,,Scattered Clouds,40,2013-09-19 08:15:00
3:35 AM,76.6,73.0,89,29.96,7.0,ENE,3.5,-,N/A,,Scattered Clouds,60,2013-09-19 08:35:00
3:55 AM,76.5,72.9,89,29.95,7.0,ENE,4.6,-,N/A,,Scattered Clouds,60,2013-09-19 08:55:00
4:15 AM,76.8,73.2,89,29.96,7.0,NE,3.5,-,N/A,,Scattered Clouds,40,2013-09-19 09:15:00
4:35 AM,76.8,72.9,88,29.95,7.0,NNE,3.5,-,N/A,,Mostly Cloudy,30,2013-09-19 09:35:00
4:55 AM,77.2,73.4,88,29.96,7.0,NE,4.6,-,N/A,,Overcast,40,2013-09-19 09:55:00
5:15 AM,77.0,72.9,87,29.96,7.0,ENE,6.9,-,N/A,,Scattered Clouds,70,2013-09-19 10:15:00
5:35 AM,77.0,72.9,87,29.95,7.0,ENE,3.5,-,N/A,,Clear,70,2013-09-19 10:35:00
5:52 AM,77.0,73.4,89,29.96,7.0,East,9.2,-,N/A,,Scattered Clouds,90,2013-09-19 10:52:00
5:55 AM,76.6,72.9,88,29.95,7.0,Calm,Calm,-,N/A,,Clear,0,2013-09-19 10:55:00
6:55 AM,75.2,73.4,94,29.98,7.0,North,6.9,-,N/A,,Scattered Clouds,360,2013-09-19 11:55:00
7:55 AM,78.8,73.4,83,29.99,5.0,NE,6.9,-,N/A,,Mostly Cloudy,40,2013-09-19 12:55:00
8:51 AM,80.6,75.2,84,30.01,7.0,ENE,6.9,-,N/A,,Mostly Cloudy,60,2013-09-19 13:51:00
9:50 AM,82.4,75.2,79,30.01,7.0,East,11.5,-,N/A,,Mostly Cloudy,100,2013-09-19 14:50:00
10:48 AM,82.4,75.2,79,30.02,7.0,East,11.5,-,N/A,,Mostly Cloudy,100,2013-09-19 15:48:00
12:50 PM,87.8,71.6,58,29.99,7.0,East,11.5,-,N/A,,Mostly Cloudy,100,2013-09-19 17:50:00
1:50 PM,87.8,71.6,58,29.97,7.0,SE,11.5,-,N/A,,Scattered Clouds,140,2013-09-19 18:50:00
2:50 PM,87.8,71.6,58,29.96,7.0,North,-9999.0,-,N/A,,Scattered Clouds,0,2013-09-19 19:50:00
3:26 PM,80.6,73.4,79,29.96,5.0,South,11.5,-,N/A,Rain,Rain,170,2013-09-19 20:26:00
3:50 PM,80.6,73.4,79,29.96,3.0,ENE,13.8,25.3,N/A,Rain,Heavy Rain,60,2013-09-19 20:50:00
4:10 PM,77.0,73.4,89,29.97,1.0,ENE,11.5,20.7,N/A,Rain,Heavy Rain,60,2013-09-19 21:10:00
4:20 PM,75.2,71.6,89,29.96,5.0,ENE,9.2,-,N/A,Rain,Light Rain,70,2013-09-19 21:20:00
4:50 PM,78.8,73.4,83,29.95,7.0,NNE,9.2,-,N/A,,Scattered Clouds,30,2013-09-19 21:50:00
5:50 PM,78.8,75.2,89,29.95,7.0,East,11.5,-,N/A,,Mostly Cloudy,80,2013-09-19 22:50:00
6:50 PM,78.8,73.4,83,29.95,7.0,ENE,9.2,-,N/A,,Scattered Clouds,60,2013-09-19 23:50:00
7:15 PM,77.9,73.8,87,29.94,10.0,East,4.6,-,N/A,,Clear,90,2013-09-20 00:15:00
7:35 PM,78.3,74.3,88,29.95,7.0,East,4.6,-,N/A,,Scattered Clouds,80,2013-09-20 00:35:00
7:55 PM,78.1,74.3,88,29.96,10.0,East,4.6,-,N/A,,Scattered Clouds,90,2013-09-20 00:55:00
8:15 PM,78.1,74.3,88,29.96,10.0,ENE,6.9,-,N/A,,Clear,70,2013-09-20 01:15:00
8:35 PM,77.9,73.8,87,29.96,10.0,East,8.1,-,N/A,,Clear,90,2013-09-20 01:35:00
8:55 PM,77.5,73.6,88,29.97,10.0,East,5.8,-,N/A,,Clear,90,2013-09-20 01:55:00
9:15 PM,77.9,73.8,87,29.98,10.0,East,5.8,-,N/A,,Clear,90,2013-09-20 02:15:00
9:35 PM,77.9,73.8,87,29.98,10.0,East,3.5,-,N/A,,Scattered Clouds,90,2013-09-20 02:35:00
9:55 PM,77.7,73.9,88,29.98,7.0,East,4.6,-,N/A,,Scattered Clouds,90,2013-09-20 02:55:00
10:15 PM,77.9,73.9,88,29.99,7.0,East,4.6,-,N/A,,Scattered Clouds,90,2013-09-20 03:15:00
10:35 PM,78.1,74.5,89,29.99,10.0,East,4.6,-,N/A,,Scattered Clouds,80,2013-09-20 03:35:00
10:55 PM,78.3,74.5,88,29.99,10.0,East,5.8,-,N/A,,Scattered Clouds,80,2013-09-20 03:55:00
11:15 PM,78.3,74.3,88,29.98,7.0,East,6.9,-,N/A,,Scattered Clouds,90,2013-09-20 04:15:00
11:35 PM,78.4,74.3,87,29.98,10.0,East,5.8,-,N/A,Rain,Light Rain,90,2013-09-20 04:35:00
11:55 PM,78.3,74.3,88,29.98,10.0,East,5.8,-,N/A,,Mostly Cloudy,100,2013-09-20 04:55:00